Time,TemperatureF,DewpointF,PressureIn,WindDirection,WindDirectionDegrees,WindSpeedMPH,WindSpeedGustMPH,Humidity,HourlyPrecipIn,Conditions,Clouds,dailyrainin,SolarRadiationWatts/m^2,SoftwareType,DateUTC
2014-09-15 00:21:00,64.0,41.0,-100.00,SE,142,5.0,8.0,43,0.00,,,0.00,0.000000,,2014-09-15 07:21:00,
2014-09-15 00:32:00,64.0,41.0,-100.00,SE,142,5.0,8.0,43,0.00,,,0.00,0.000000,,2014-09-15 07:32:00,
2014-09-15 00:42:00,64.0,41.0,-100.00,SE,142,5.0,8.0,43,0.00,,,0.00,0.000000,,2014-09-15 07:42:00,
2014-09-15 00:51:00,62.0,41.0,-100.00,North,356,4.0,8.0,46,0.00,,,0.00,0.000000,,2014-09-15 07:51:00,
2014-09-15 01:42:00,62.0,41.0,-100.00,North,356,4.0,8.0,46,0.00,,,0.00,0.000000,,2014-09-15 08:42:00,
2014-09-15 01:51:00,62.0,42.0,-100.00,North,11,2.0,7.0,48,0.00,,,0.00,0.000000,,2014-09-15 08:51:00,
2014-09-15 02:22:00,62.0,42.0,-100.00,North,11,2.0,7.0,48,0.00,,,0.00,0.000000,,2014-09-15 09:22:00,
2014-09-15 02:34:00,62.0,42.0,-100.00,North,11,2.0,7.0,48,0.00,,,0.00,0.000000,,2014-09-15 09:34:00,
2014-09-15 02:43:00,62.0,42.0,-100.00,North,11,2.0,7.0,48,0.00,,,0.00,0.000000,,2014-09-15 09:43:00,
2014-09-15 03:23:00,62.0,42.0,-100.00,North,-999,0.0,4.0,48,0.00,,,0.00,0.000000,,2014-09-15 10:23:00,
2014-09-15 03:33:00,62.0,42.0,-100.00,North,-999,0.0,4.0,48,0.00,,,0.00,0.000000,,2014-09-15 10:33:00,
2014-09-15 03:43:00,62.0,42.0,-100.00,North,-999,0.0,4.0,48,0.00,,,0.00,0.000000,,2014-09-15 10:43:00,
2014-09-15 03:51:00,62.0,42.0,-100.00,North,-999,0.0,4.0,47,-99.99,,,-99.99,0.000000,,2014-09-15 10:51:00,
2014-09-15 04:23:00,62.0,42.0,-100.00,North,-999,0.0,4.0,47,-99.99,,,-99.99,0.000000,,2014-09-15 11:23:00,
2014-09-15 04:33:00,62.0,42.0,-100.00,North,-999,0.0,4.0,47,-99.99,,,-99.99,0.000000,,2014-09-15 11:33:00,
2014-09-15 04:42:00,62.0,42.0,-100.00,North,-999,0.0,4.0,47,-99.99,,,-99.99,0.000000,,2014-09-15 11:42:00,
2014-09-15 04:51:00,62.0,40.0,-100.00,North,-999,0.0,0.0,45,0.00,,,0.00,0.000000,,2014-09-15 11:51:00,
2014-09-15 05:22:00,62.0,40.0,-100.00,North,-999,0.0,0.0,45,0.00,,,0.00,0.000000,,2014-09-15 12:22:00,
2014-09-15 05:32:00,62.0,40.0,-100.00,North,-999,0.0,0.0,45,0.00,,,0.00,0.000000,,2014-09-15 12:32:00,
2014-09-15 05:43:00,62.0,40.0,-100.00,North,-999,0.0,0.0,45,0.00,,,0.00,0.000000,,2014-09-15 12:43:00,
2014-09-15 05:51:00,62.0,40.0,-100.00,North,-999,0.0,4.0,44,0.00,,,0.00,0.000000,,2014-09-15 12:51:00,
2014-09-15 06:22:00,62.0,40.0,-100.00,North,-999,0.0,4.0,44,0.00,,,0.00,0.000000,,2014-09-15 13:22:00,
2014-09-15 06:33:00,62.0,40.0,-100.00,North,-999,0.0,4.0,44,0.00,,,0.00,0.000000,,2014-09-15 13:33:00,
2014-09-15 06:43:00,62.0,40.0,-100.00,North,-999,0.0,4.0,44,0.00,,,0.00,0.000000,,2014-09-15 13:43:00,
2014-09-15 06:51:00,64.0,34.0,-100.00,SSW,203,2.0,5.0,33,0.00,,,0.00,2.000000,,2014-09-15 13:51:00,
2014-09-15 07:22:00,64.0,34.0,-100.00,SSW,203,2.0,5.0,33,0.00,,,0.00,2.000000,,2014-09-15 14:22:00,
2014-09-15 07:33:00,64.0,34.0,-100.00,SSW,203,2.0,5.0,33,0.00,,,0.00,2.000000,,2014-09-15 14:33:00,
2014-09-15 07:43:00,64.0,34.0,-100.00,SSW,203,2.0,5.0,33,0.00,,,0.00,2.000000,,2014-09-15 14:43:00,
2014-09-15 07:51:00,66.0,38.0,-100.00,North,-999,0.0,5.0,35,0.00,,,0.00,37.000000,,2014-09-15 14:51:00,
2014-09-15 08:23:00,66.0,38.0,-100.00,North,-999,0.0,5.0,35,0.00,,,0.00,37.000000,,2014-09-15 15:23:00,
2014-09-15 08:33:00,66.0,38.0,-100.00,North,-999,0.0,5.0,35,0.00,,,0.00,37.000000,,2014-09-15 15:33:00,
2014-09-15 08:44:00,66.0,38.0,-100.00,North,-999,0.0,5.0,35,0.00,,,0.00,37.000000,,2014-09-15 15:44:00,
2014-09-15 08:51:00,69.0,38.0,-100.00,North,-999,0.0,5.0,32,0.00,,,0.00,64.000000,,2014-09-15 15:51:00,
2014-09-15 09:43:00,69.0,38.0,-100.00,North,-999,0.0,5.0,32,0.00,,,0.00,64.000000,,2014-09-15 16:43:00,
2014-09-15 09:51:00,78.0,41.0,-100.00,NW,319,1.0,6.0,27,0.00,,,0.00,555.000000,,2014-09-15 16:51:00,
2014-09-15 10:51:00,79.0,44.0,-100.00,WSW,238,2.0,7.0,29,0.00,,,0.00,932.000000,,2014-09-15 17:51:00,
2014-09-15 11:22:00,79.0,44.0,-100.00,WSW,238,2.0,7.0,29,0.00,,,0.00,932.000000,,2014-09-15 18:22:00,
2014-09-15 11:32:00,79.0,44.0,-100.00,WSW,238,2.0,7.0,29,0.00,,,0.00,932.000000,,2014-09-15 18:32:00,
2014-09-15 11:42:00,79.0,44.0,-100.00,WSW,238,2.0,7.0,29,0.00,,,0.00,932.000000,,2014-09-15 18:42:00,
2014-09-15 11:51:00,81.0,45.0,-100.00,NW,313,3.0,8.0,28,0.00,,,0.00,1188.000000,,2014-09-15 18:51:00,
2014-09-15 12:43:00,81.0,45.0,-100.00,NW,313,3.0,8.0,28,0.00,,,0.00,1188.000000,,2014-09-15 19:43:00,
2014-09-15 15:51:00,79.0,45.0,-100.00,NW,326,1.0,8.0,30,-99.99,,,0.00,914.000000,,2014-09-15 22:51:00,
2014-09-15 16:22:00,79.0,45.0,-100.00,NW,326,1.0,8.0,30,-99.99,,,0.00,914.000000,,2014-09-15 23:22:00,
2014-09-15 16:33:00,79.0,45.0,-100.00,NW,326,1.0,8.0,30,-99.99,,,0.00,914.000000,,2014-09-15 23:33:00,
2014-09-15 16:43:00,79.0,45.0,-100.00,NW,326,1.0,8.0,30,-99.99,,,0.00,914.000000,,2014-09-15 23:43:00,
2014-09-15 16:51:00,72.0,45.0,-100.00,East,82,6.0,8.0,38,0.00,,,0.00,173.000000,,2014-09-15 23:51:00,
2014-09-15 17:22:00,72.0,45.0,-100.00,East,82,6.0,8.0,38,0.00,,,0.00,173.000000,,2014-09-16 00:22:00,
2014-09-15 17:32:00,72.0,45.0,-100.00,East,82,6.0,8.0,38,0.00,,,0.00,173.000000,,2014-09-16 00:32:00,
2014-09-15 17:42:00,72.0,45.0,-100.00,East,82,6.0,8.0,38,0.00,,,0.00,173.000000,,2014-09-16 00:42:00,
2014-09-15 17:51:00,67.0,45.0,-100.00,WSW,248,6.0,13.0,45,0.00,,,0.00,166.000000,,2014-09-16 00:51:00,
2014-09-15 18:22:00,67.0,45.0,-100.00,WSW,248,6.0,13.0,45,0.00,,,0.00,166.000000,,2014-09-16 01:22:00,
2014-09-15 18:32:00,67.0,45.0,-100.00,WSW,248,6.0,13.0,45,0.00,,,0.00,166.000000,,2014-09-16 01:32:00,
2014-09-15 18:42:00,67.0,45.0,-100.00,WSW,248,6.0,13.0,45,0.00,,,0.00,166.000000,,2014-09-16 01:42:00,
2014-09-15 18:51:00,64.0,44.0,-100.00,NNW,335,4.0,11.0,48,0.00,,,0.00,46.000000,,2014-09-16 01:51:00,
2014-09-15 19:22:00,64.0,44.0,-100.00,NNW,335,4.0,11.0,48,0.00,,,0.00,46.000000,,2014-09-16 02:22:00,
2014-09-15 19:33:00,64.0,44.0,-100.00,NNW,335,4.0,11.0,48,0.00,,,0.00,46.000000,,2014-09-16 02:33:00,
2014-09-15 19:42:00,64.0,44.0,-100.00,NNW,335,4.0,11.0,48,0.00,,,0.00,46.000000,,2014-09-16 02:42:00,
2014-09-15 19:51:00,63.0,44.0,-100.00,NNW,343,7.0,11.0,49,0.00,,,0.00,2.000000,,2014-09-16 02:51:00,
2014-09-15 20:23:00,63.0,44.0,-100.00,NNW,343,7.0,11.0,49,0.00,,,0.00,2.000000,,2014-09-16 03:23:00,
2014-09-15 20:33:00,63.0,44.0,-100.00,NNW,343,7.0,11.0,49,0.00,,,0.00,2.000000,,2014-09-16 03:33:00,
2014-09-15 20:44:00,63.0,44.0,-100.00,NNW,343,7.0,11.0,49,0.00,,,0.00,2.000000,,2014-09-16 03:44:00,
2014-09-15 20:51:00,62.0,41.0,-100.00,NW,325,7.0,13.0,46,0.00,,,0.00,0.000000,,2014-09-16 03:51:00,
2014-09-15 21:24:00,62.0,41.0,-100.00,NW,325,7.0,13.0,46,0.00,,,0.00,0.000000,,2014-09-16 04:24:00,
2014-09-15 21:34:00,62.0,41.0,-100.00,NW,325,7.0,13.0,46,0.00,,,0.00,0.000000,,2014-09-16 04:34:00,
2014-09-15 21:43:00,62.0,41.0,-100.00,NW,325,7.0,13.0,46,0.00,,,0.00,0.000000,,2014-09-16 04:43:00,
2014-09-15 21:51:00,63.0,45.0,-100.00,WSW,250,9.0,15.0,51,0.00,,,0.00,0.000000,,2014-09-16 04:51:00,
2014-09-15 22:23:00,63.0,45.0,-100.00,WSW,250,9.0,15.0,51,0.00,,,0.00,0.000000,,2014-09-16 05:23:00,
2014-09-15 22:33:00,63.0,45.0,-100.00,WSW,250,9.0,15.0,51,0.00,,,0.00,0.000000,,2014-09-16 05:33:00,
2014-09-15 22:43:00,63.0,45.0,-100.00,WSW,250,9.0,15.0,51,0.00,,,0.00,0.000000,,2014-09-16 05:43:00,